STARLINK-34686, 65087

Orbit data source: Space-Track

STARLINK-34686, 65087 is a payload satellite owned by SpaceX/Seattle (US) in LEO that was launched on Mon, 04 Aug 2025 UTC via an FALCON 9 launch vehicle from the Air Force Eastern Test Range (AFETR). Payload-class satellites include a variety of spacecraft equipped with specific instruments for various scientific and technological missions. These include communications satellites like Starlink; space stations such as the ISS; scientific satellites like the Hubble; Earth observation satellites from companies like Planet Labs, Umbra, and HawkEye 360; GPS; miniature CubeSats for education and research; and military/defense satellites.

Loading next visibility...
Identifier
65087, 2025-167K
Orbit
LEO
Country
Flag of USUS
Related business
Manufacturer
SpaceX/Seattle
Mission
Operational Commercial Communications
Bus & Motor
STARLINK V2MO, Unknown motor
Mass
575 kg wet, ~530 kg dry
Launch date (UTC)
2025-08-04 (9 months ago)
Launch vehicle
FALCON 9
Launch site
Air Force Eastern Test Range (AFETR)
Object type
Payload
Rocket body
Debris
Shape & HBR
Box + 2 Pan, 17.7 m
Radar Cross Section
36.964 m², Large (>1 m²)

Expand to show TLE details & history
Last TLE update: 13 hours ago

TLE from 13 hours ago
0 STARLINK-34686
1 65087U 25167K   26127.26697174  .00009898  00000-0  34591-3 0  9996
2 65087  53.1585 114.9045 0001340  86.2595 273.8559 15.30194604 42448
Epoch: 2026-05-07T06:24Z
TLE epoch observation values (Epoch: 2026-05-07T06:24:26.358Z)
Latitude
-0.00001°
Longitude
153.6791°
Altitude
476.069 km
Speed
7.629 km/s
True Right ascension
07h 39m 37s
True Declination
0° 00' 00"
Sunlit
Object was in daylight at epoch
Visualization orbit readout
Latitude
Unknown
Longitude
Unknown
Altitude
Unknown
Speed
Unknown
Apparent Right ascension
Unknown
Apparent Declination
Unknown
Sunlit
N/A
Visualization observer readout
Local Sidereal Time
02:57:29
Azimuth
Unknown
Elevation
Unknown
Doppler factor
Unknown
Orbital elements
Apogee altitude
476.406 km
Perigee altitude
474.569 km
Semi-major axis
6,853.625 km
Eccentricity
0.00013
Inclination
53.1585°
RAAN
114.9045°
Arg. of periapsis
86.2595°
True anomaly
273.84058°
Mean anomaly
273.8559°
Eccentric anomaly
273.84824°
Mean motion
3.82528 °/min
Orbital period
94.11 mins
BSTAR
0.00034591
Loading maneuver chart data...
Computing Atmospheric mass density...
Loading historical data...
Loading historical data...
Loading historical data...
Loading historical data...
Loading historical data...
Loading historical data...
Loading historical data...

Documentation

Showing up to 5 results
|